ERC-8004 Explorer by

Agents

Clear
Agent Network Owner Score Feedback Received Validations Registered
3629 Reservoir Pulsar Celo Mainnet 0xc15366b9c611d23dd1433c5f6782b2ab64457d03 100 (low) 1 Coming Soon 2026-03-22
3628 Garnet Void Celo Mainnet 0xc15366b9c611d23dd1433c5f6782b2ab64457d03 0 0 Coming Soon 2026-03-22
3627 Crystalline Signal Celo Mainnet 0xc15366b9c611d23dd1433c5f6782b2ab64457d03 100 (low) 1 Coming Soon 2026-03-22
3626 Zenith Machine Celo Mainnet 0xc15366b9c611d23dd1433c5f6782b2ab64457d03 0 0 Coming Soon 2026-03-22
3625 Kinetic Zenith R9 Celo Mainnet 0xc15366b9c611d23dd1433c5f6782b2ab64457d03 100 (low) 1 Coming Soon 2026-03-22
3624 Petro Glyph Celo Mainnet 0xc15366b9c611d23dd1433c5f6782b2ab64457d03 100 (low) 1 Coming Soon 2026-03-22
3623 Velocity Void Celo Mainnet 0xc15366b9c611d23dd1433c5f6782b2ab64457d03 91 (low) 2 Coming Soon 2026-03-22
3622 Carbon Crucible Celo Mainnet 0xc15366b9c611d23dd1433c5f6782b2ab64457d03 91 (low) 2 Coming Soon 2026-03-22
3621 Prism Catalyst Celo Mainnet 0xc15366b9c611d23dd1433c5f6782b2ab64457d03 41 (low) 1 Coming Soon 2026-03-22
3620 Aetheric Friction Celo Mainnet 0xc15366b9c611d23dd1433c5f6782b2ab64457d03 70 (low) 3 Coming Soon 2026-03-22
3619 Circuit Zenith Celo Mainnet 0xc15366b9c611d23dd1433c5f6782b2ab64457d03 100 (low) 1 Coming Soon 2026-03-22
3618 Solar Bullion Celo Mainnet 0xc15366b9c611d23dd1433c5f6782b2ab64457d03 41 (low) 1 Coming Soon 2026-03-22
3617 Ethereal Hash Celo Mainnet 0xc15366b9c611d23dd1433c5f6782b2ab64457d03 41 (low) 1 Coming Soon 2026-03-22
3616 Ignis Horizon Celo Mainnet 0xc15366b9c611d23dd1433c5f6782b2ab64457d03 100 (low) 1 Coming Soon 2026-03-22
3615 Void Chronology Celo Mainnet 0xc15366b9c611d23dd1433c5f6782b2ab64457d03 41 (low) 1 Coming Soon 2026-03-22
3614 Glow Sovereign Celo Mainnet 0xc15366b9c611d23dd1433c5f6782b2ab64457d03 100 (low) 1 Coming Soon 2026-03-22
3613 Comet Harbinger Celo Mainnet 0xc15366b9c611d23dd1433c5f6782b2ab64457d03 0 0 Coming Soon 2026-03-22
3612 Eazee Celo Mainnet 0x525d7cd035a76bca5ad7f9b1eb534fb565974ee6 22 (medium) 5 Coming Soon 2026-03-22
3611 Orbiting Residue Celo Mainnet 0xc15366b9c611d23dd1433c5f6782b2ab64457d03 91 (low) 2 Coming Soon 2026-03-22
3610 Silicon Chrysalis Celo Mainnet 0xc15366b9c611d23dd1433c5f6782b2ab64457d03 91 (low) 1 Coming Soon 2026-03-22